Wind_Speed
5 4 3 2 2 2 1 1 0 1 1 1 1 1 1 1 1 1 1 0 1 1 1 1 2 2 3 3 3 4 4 4 4 4 4 4 4 4 5 5 5 6 5
5 5 4 4 3 2 2 1 1 0 1 0 1 1 1 1 1 0 0 0 0 1 1 2 2 3 3 4 4 5 5 5 6 6 5 6 6 6 6 6 7 7 7
6 6 5 5 4 3 2 2 2 1 0 0 0 0 1 1 1 0 0 0 1 1 2 2 2 3 4 4 5 6 6 6 7 7 7 7 8 8 8 8 8 8 8
7 7 6 6 6 4 3 2 2 2 1 1 1 0 1 1 1 1 0 1 1 1 2 2 3 3 4 5 5 5 6 6 7 8 8 8 9 9 10 10 10 10 10
8 7 7 7 7 5 5 3 2 2 2 1 1 1 0 0 0 1 1 1 1 2 2 3 3 4 4 5 5 5 6 7 7 8 8 9 9 9 10 11 11 11 12
8 8 8 8 7 7 6 4 3 3 3 2 2 2 1 1 1 1 1 1 2 2 2 2 3 4 4 5 5 5 6 7 8 8 9 9 10 10 10 11 12 12 13
9 9 9 9 8 8 7 6 5 5 5 4 3 3 3 2 2 2 2 2 2 2 3 3 4 4 5 5 6 6 7 8 8 9 10 10 11 11 12 12 13 13 14
9 10 11 10 9 8 8 7 6 6 6 5 5 5 4 4 4 4 3 3 3 3 4 4 5 5 5 6 7 8 8 9 9 10 10 11 12 12 13 13 13 14 15
10 10 10 11 11 10 9 8 7 7 7 7 7 7 7 6 6 6 5 5 5 5 5 5 6 6 7 8 9 9 10 10 11 11 12 12 13 13 13 14 15 15 15
11 11 11 11 11 11 10 10 9 9 8 9 9 9 8 8 8 7 7 8 7 7 7 7 8 8 9 10 10 10 10 11 12 13 13 13 14 15 15 16 16 17 17
11 11 11 11 11 11 11 11 11 10 10 10 10 10 10 10 10 10 10 10 10 10 10 10 10 10 10 11 12 12 12 13 13 14 14 15 15 16 16 17 18 19 19
11 11 11 11 11 12 12 12 13 12 12 12 12 12 12 13 13 12 12 13 13 13 13 13 13 13 13 13 14 14 15 15 16 16 17 18 18 19 19 20 20 20 21
11 12 12 12 12 13 13 13 14 14 13 14 13 14 14 15 15 15 15 15 15 15 15 16 16 16 16 17 17 18 18 18 19 19 20 21 21 22 22 23 24 24 24
12 12 13 13 13 14 14 15 15 15 15 16 16 15 16 16 17 17 17 17 18 18 18 19 19 20 20 20 20 20 21 21 22 22 22 23 24 25 25 25 26 27 27
12 13 13 14 14 14 15 15 16 16 16 17 17 17 17 18 19 19 19 19 20 21 21 22 22 22 23 24 23 23 23 23 24 25 25 26 26 27 28 29 29 30 31
12 13 14 14 15 15 15 17 17 17 18 18 19 19 19 19 20 20 21 22 22 22 23 24 24 25 25 25 26 26 26 27 28 28 28 29 29 30 30 31 31 32 33
12 12 14 14 15 15 16 17 18 19 19 20 20 20 21 22 22 22 23 23 24 24 25 25 26 27 27 28 29 29 29 30 31 31 31 31 32 32 33 34 35 36 36
12 13 14 15 16 16 17 17 19 20 20 20 21 21 22 23 23 24 24 24 25 26 27 27 28 29 29 30 31 32 32 32 33 33 34 34 35 36 36 37 38 38 39
12 13 14 16 17 17 18 19 20 20 20 21 22 23 23 23 24 25 25 25 26 27 28 29 30 31 31 32 32 33 34 34 35 36 37 38 38 39 40 40 40 40 41
12 13 15 15 17 18 18 19 19 19 21 21 22 23 25 25 25 26 26 27 28 29 30 31 32 32 32 33 33 34 35 36 37 38 39 40 40 41 41 40 41 42 43
13 14 15 16 17 18 19 20 20 21 21 22 23 23 24 25 26 27 27 28 29 29 31 32 32 33 33 34 35 36 37 38 39 39 40 40 41 41 41 42 42 42 42
15 15 16 17 18 19 20 20 21 22 22 23 23 24 25 26 26 27 28 29 29 30 31 32 33 33 34 35 36 37 38 39 39 38 39 39 39 40 40 41 42 43 44
16 16 17 18 19 19 20 22 23 23 23 24 24 25 26 27 27 28 28 29 30 30 32 33 34 34 34 35 37 38 38 38 38 39 39 39 40 41 42 43 44 45 45
17 18 19 19 20 21 22 22 23 24 24 25 25 26 27 27 28 29 29 30 31 32 33 33 34 35 35 36 36 38 39 39 39 40 40 41 42 42 43 44 45 46 47
18 19 20 21 21 22 22 23 24 25 26 26 27 28 28 29 29 30 30 31 32 33 33 33 34 35 36 36 37 38 38 39 40 41 41 42 43 44 45 45 46 47 47
20 20 21 22 23 24 24 25 26 27 27 28 29 30 30 30 31 31 31 32 32 33 33 34 35 36 36 37 38 39 39 40 41 42 42 43 44 45 46 46 47 47 48
Wind_Direction
226 223 225 231 227 201 189 216 318 14 11 355 346 0 32 43 36 63 75 128 195 204 206 212 216 222 227 226 226 231 238 246 248 248 254 262 271 276 276 272 274 281 285
227 224 219 223 224 208 195 195 200 358 39 15 4 16 56 46 45 34 38 128 232 242 262 254 241 244 244 243 241 241 247 250 252 256 261 266 272 275 275 274 275 278 281
225 228 224 220 216 208 195 194 189 188 134 165 101 67 62 55 64 52 352 266 271 267 273 275 262 260 262 260 259 251 253 256 256 260 267 271 273 274 276 276 276 277 279
225 227 224 218 217 215 205 199 194 205 211 180 140 73 40 66 76 53 4 314 303 289 279 278 276 272 269 266 267 259 259 261 262 265 269 273 273 273 273 275 277 277 278
220 225 219 211 212 213 210 210 209 215 226 220 228 250 315 46 56 25 8 336 316 299 287 283 282 277 275 271 268 263 265 266 268 270 271 275 277 276 275 275 275 275 277
220 219 216 210 209 214 216 220 228 235 238 231 233 246 266 288 319 340 338 333 325 306 290 290 285 285 282 277 275 275 274 274 274 273 273 276 279 279 279 277 276 275 275
227 221 216 212 213 219 224 228 232 241 236 234 241 249 263 279 289 299 301 303 307 302 292 288 285 284 285 284 284 282 282 280 279 277 277 279 279 281 280 278 277 277 276
227 224 220 219 221 226 231 232 235 241 239 243 249 254 264 272 283 285 284 286 285 288 288 287 288 288 288 288 289 286 282 282 281 281 280 280 280 280 281 280 279 277 276
221 227 227 223 224 229 231 233 238 244 247 247 250 259 265 270 276 275 273 278 280 280 283 287 290 292 291 288 289 288 286 284 282 282 282 281 281 280 281 281 280 278 276
224 229 231 229 228 230 234 237 243 249 251 250 250 257 263 268 273 272 268 269 272 279 282 284 288 292 294 291 290 288 287 287 286 285 285 284 283 281 281 281 279 278 277
225 229 233 232 230 232 235 239 246 251 254 254 253 257 261 264 269 271 271 271 273 277 279 282 285 289 293 291 288 286 286 287 288 287 286 285 284 283 282 282 281 280 279
228 230 234 235 234 237 240 243 248 252 254 256 257 260 263 263 265 268 270 271 272 274 276 279 280 283 285 287 286 284 284 285 285 286 285 284 283 282 282 282 282 281 280
232 233 238 239 239 240 244 248 251 254 256 257 259 262 265 266 267 267 268 270 271 273 274 276 278 280 281 281 283 282 282 282 283 284 284 283 281 280 280 281 281 280 279
241 238 240 242 244 246 249 251 253 258 259 259 260 263 265 265 266 267 268 270 272 273 275 276 277 278 279 279 280 281 281 282 282 283 282 282 282 280 278 279 279 279 278
243 241 243 246 249 251 252 251 255 259 259 261 263 264 264 266 267 267 270 272 273 274 277 277 277 278 280 280 279 280 280 281 282 282 282 282 281 280 280 279 280 280 279
248 246 248 250 252 255 255 256 259 260 264 265 265 264 264 268 269 270 271 272 273 275 278 279 279 279 280 281 282 281 281 282 283 283 283 282 281 280 280 280 281 281 281
249 249 250 253 256 257 257 260 263 266 266 265 266 266 265 267 269 270 271 272 273 275 278 280 280 280 281 279 280 281 281 281 282 283 283 284 283 282 282 281 281 281 282
253 254 256 259 260 259 259 264 267 268 268 269 270 270 270 271 271 272 273 274 274 276 278 279 279 279 280 280 280 279 280 281 282 282 283 283 283 283 283 283 281 281 280
261 261 260 261 261 262 264 267 270 271 272 274 274 272 273 273 274 275 273 274 275 277 279 280 279 279 279 281 281 281 280 280 282 282 282 282 282 283 283 283 283 282 281
267 267 266 266 267 268 268 270 273 273 273 275 277 275 273 274 276 275 275 276 277 279 280 280 279 279 280 283 283 284 284 282 282 282 283 283 282 283 284 283 283 283 283
272 272 270 268 269 271 273 273 273 274 275 276 278 278 277 277 279 277 277 279 281 282 282 282 281 280 282 283 284 285 285 285 284 284 284 284 283 283 283 283 283 284 284
276 275 273 272 271 270 272 274 276 278 279 280 280 281 282 281 281 279 279 281 283 283 284 284 283 284 286 286 286 285 286 286 285 286 286 286 285 285 284 283 283 283 283
277 276 275 273 273 273 275 277 278 278 280 281 281 281 281 280 281 281 281 282 283 283 285 284 284 286 287 286 287 286 286 287 286 286 285 286 286 286 286 285 285 285 285
277 276 275 274 275 276 278 279 280 280 280 282 283 284 283 282 283 281 283 284 284 285 285 285 286 287 287 287 288 288 287 287 287 287 286 287 287 288 288 288 288 287 287
281 280 278 276 277 279 280 280 282 283 282 283 284 285 284 284 284 284 285 286 286 287 288 289 289 289 289 290 290 291 290 289 288 288 287 288 289 289 290 289 290 290 290
284 282 279 281 281 280 280 280 282 284 283 283 284 285 285 285 285 285 287 288 288 288 290 290 290 289 291 292 293 292 291 290 291 289 289 289 290 290 291 290 291 292 292
Height
5892 5893 5894 5895 5896 5897 5897 5898 5898 5898 5899 5899 5899 5899 5900 5900 5900 5900 5900 5901 5901 5902 5902 5903 5903 5903 5904 5904 5905 5905 5906 5906 5907 5907 5908 5908 5908 5908 5909 5909 5909 5909 5909
5891 5892 5894 5895 5896 5896 5897 5897 5898 5898 5899 5900 5900 5900 5900 5900 5900 5900 5900 5901 5901 5902 5902 5902 5903 5903 5903 5904 5904 5905 5905 5906 5906 5907 5907 5907 5907 5908 5908 5908 5908 5908 5908
5890 5892 5893 5894 5895 5896 5897 5898 5898 5899 5899 5900 5900 5900 5900 5900 5900 5900 5901 5901 5901 5902 5902 5902 5903 5903 5903 5903 5903 5904 5904 5905 5905 5906 5906 5906 5906 5906 5906 5906 5907 5907 5907
5889 5891 5892 5893 5894 5895 5897 5898 5898 5899 5899 5900 5900 5900 5900 5901 5901 5901 5901 5901 5901 5901 5902 5902 5902 5902 5903 5903 5903 5903 5903 5904 5904 5904 5904 5904 5905 5905 5905 5905 5905 5905 5905
5888 5890 5891 5892 5893 5895 5896 5897 5898 5899 5899 5900 5900 5901 5901 5901 5901 5901 5901 5901 5901 5901 5901 5902 5902 5902 5902 5902 5902 5902 5902 5902 5902 5902 5903 5903 5903 5902 5902 5903 5903 5903 5903
5887 5889 5890 5891 5893 5894 5896 5897 5898 5898 5899 5900 5900 5901 5901 5901 5901 5901 5901 5901 5901 5901 5901 5901 5901 5901 5901 5901 5901 5901 5901 5901 5901 5901 5901 5901 5901 5900 5900 5900 5900 5900 5900
5886 5888 5889 5891 5892 5894 5895 5896 5897 5898 5899 5899 5900 5901 5901 5901 5901 5901 5901 5901 5901 5901 5901 5901 5901 5900 5900 5900 5900 5900 5900 5899 5899 5899 5899 5899 5898 5898 5898 5898 5898 5898 5897
5885 5887 5888 5890 5892 5893 5894 5895 5896 5897 5898 5899 5899 5900 5901 5901 5901 5901 5901 5901 5901 5900 5900 5900 5900 5900 5899 5899 5899 5898 5898 5898 5897 5897 5896 5896 5896 5896 5895 5895 5894 5894 5894
5884 5886 5887 5888 5890 5892 5893 5894 5895 5896 5897 5898 5898 5899 5900 5900 5900 5900 5900 5900 5900 5900 5899 5899 5899 5898 5898 5898 5897 5897 5896 5896 5895 5895 5894 5894 5893 5893 5893 5892 5891 5891 5890
5883 5884 5886 5887 5889 5890 5892 5893 5894 5895 5895 5896 5897 5898 5898 5898 5898 5899 5899 5898 5898 5898 5898 5898 5897 5897 5896 5896 5895 5895 5894 5893 5893 5892 5892 5891 5891 5890 5890 5889 5888 5887 5887
5881 5883 5884 5885 5887 5889 5890 5891 5892 5893 5894 5894 5895 5895 5896 5896 5896 5897 5897 5897 5896 5896 5896 5896 5895 5895 5894 5893 5893 5892 5892 5891 5890 5889 5889 5888 5887 5887 5886 5885 5884 5883 5883
5879 5881 5882 5883 5885 5887 5888 5889 5890 5891 5892 5892 5893 5893 5894 5894 5894 5894 5894 5894 5894 5894 5894 5893 5893 5892 5891 5891 5890 5889 5888 5888 5887 5886 5885 5884 5883 5883 5882 5881 5880 5879 5878
5878 5879 5880 5881 5883 5884 5886 5887 5888 5888 5889 5890 5890 5890 5891 5891 5891 5891 5891 5891 5890 5890 5890 5890 5889 5889 5888 5887 5886 5885 5885 5884 5883 5882 5881 5880 5879 5878 5877 5876 5875 5874 5872
5876 5877 5878 5879 5880 5882 5883 5884 5885 5885 5886 5887 5887 5887 5887 5887 5888 5887 5887 5887 5887 5886 5886 5886 5885 5884 5883 5883 5882 5881 5880 5879 5878 5877 5875 5874 5873 5872 5871 5869 5868 5867 5866
5874 5875 5876 5877 5878 5879 5880 5881 5882 5882 5883 5883 5883 5883 5883 5883 5883 5883 5883 5883 5883 5882 5882 5881 5880 5880 5879 5878 5877 5876 5874 5873 5872 5871 5870 5868 5867 5865 5864 5863 5861 5860 5859
5871 5872 5873 5874 5875 5876 5876 5877 5878 5878 5879 5879 5879 5879 5879 5879 5879 5879 5878 5878 5878 5877 5877 5876 5875 5874 5873 5872 5871 5869 5868 5867 5865 5864 5863 5861 5860 5858 5857 5855 5854 5852 5851
5869 5869 5870 5871 5872 5872 5873 5874 5874 5874 5874 5874 5874 5874 5874 5874 5874 5873 5873 5872 5872 5872 5871 5870 5868 5867 5866 5865 5864 5862 5861 5860 5858 5856 5855 5853 5852 5850 5849 5847 5845 5843 5842
5866 5867 5867 5868 5868 5869 5869 5870 5870 5870 5870 5869 5869 5869 5869 5868 5868 5868 5867 5867 5866 5865 5865 5864 5862 5861 5859 5858 5856 5855 5854 5852 5850 5848 5847 5845 5843 5841 5840 5838 5836 5834 5832
5863 5863 5864 5865 5865 5865 5866 5866 5866 5865 5865 5864 5864 5864 5863 5863 5863 5862 5861 5860 5860 5859 5858 5856 5855 5853 5852 5850 5849 5847 5845 5844 5842 5840 5838 5836 5834 5832 5830 5828 5826 5824 5821
5860 5860 5861 5861 5861 5861 5861 5861 5861 5860 5860 5859 5859 5858 5857 5857 5856 5855 5855 5854 5852 5851 5850 5848 5847 5845 5844 5842 5840 5839 5837 5835 5833 5830 5828 5826 5824 5822 5819 5817 5815 5812 5810
5857 5857 5857 5857 5857 5857 5857 5856 5856 5855 5855 5854 5853 5852 5851 5850 5849 5849 5848 5846 5845 5844 5842 5840 5838 5837 5835 5834 5832 5830 5827 5825 5822 5820 5818 5815 5813 5811 5808 5806 5803 5801 5798
5853 5853 5853 5852 5852 5852 5852 5851 5851 5850 5849 5848 5848 5846 5845 5844 5843 5842 5840 5839 5838 5836 5834 5832 5830 5828 5827 5824 5822 5820 5818 5815 5813 5811 5807 5805 5802 5799 5797 5794 5792 5789 5786
5849 5849 5848 5848 5848 5847 5847 5846 5845 5844 5844 5843 5841 5840 5839 5837 5836 5835 5833 5831 5830 5828 5826 5825 5822 5820 5818 5815 5813 5810 5808 5805 5802 5800 5797 5794 5791 5789 5786 5783 5780 5777 5773
5845 5844 5844 5843 5843 5842 5841 5840 5839 5838 5837 5836 5835 5834 5832 5831 5829 5827 5826 5824 5822 5820 5818 5816 5814 5811 5809 5806 5803 5801 5798 5795 5792 5789 5786 5784 5780 5777 5774 5771 5767 5764 5760
5841 5840 5839 5838 5838 5837 5836 5835 5833 5832 5831 5829 5828 5826 5825 5823 5821 5820 5818 5816 5814 5812 5809 5807 5804 5802 5799 5796 5793 5791 5788 5784 5781 5778 5775 5772 5769 5765 5762 5758 5754 5751 5747
5836 5835 5834 5833 5832 5831 5830 5828 5827 5825 5824 5822 5821 5819 5818 5816 5814 5812 5810 5808 5806 5803 5801 5798 5795 5793 5790 5787 5784 5780 5777 5774 5770 5767 5763 5760 5756 5753 5749 5745 5741 5737 5733